Location: Lixville
(37.5770°N, 89.9118°W)
Time: 15:06:22
(UTC+00:00)

Courier 1B Rocket - Pass Details

Date: 10 November 2024
Orbit: 920 x 1201 km, 28.2° (Epoch: 02 December)

Event Time Altitude Azimuth Distance (km) Brightness Sun altitude
Rises 00:06:05 0° 246° (WSW) 3,609 9.6 -14.8°
Reaches altitude 10° 00:08:59 10° 237° (WSW) 2,637 8.4 -15.3°
Maximum altitude 00:14:34 34° 174° (S) 1,470 6.0 -16.4°
Enters shadow 00:18:25 18° 121° (ESE) 2,102 6.3 -17.2°
